Regional Weather Roundup
Issued by NWS Green Bay, WI

Home | Current Version | Previous Version | Text Only | Print | Product List | Glossary On
Versions: 1 2 3 4 5 6 7 8 9 10 11 12 13 14 15 16 17 18 19 20 21 22 23 24 25 26 27 28 29 30 31 32 33 34 35 36 37 38 39 40 41 42 43 44 45 46 47 48 49 50
000
ASUS43 KGRB 020711
RWRGRB

NORTH-CENTRAL AND NORTHEAST WISCONSIN REGIONAL WEATHER ROUNDUP
NATIONAL WEATHER SERVICE GREEN BAY WI
200 AM CDT SUN AUG 02 2015

WIZ005-009-010>012-018-019-020800-
NORTH CENTRAL WISCONSIN

CITY           SKY/WX    TMP DP  RH WIND       PRES   REMARKS
IRONWOOD       CLEAR     68  59  73 SW12G17   29.67F
MANITOWISH WTR CLEAR     56  56 100 CALM      29.73F
ARBOR VITAE    CLEAR     59  56  87 CALM      29.75F
EAGLE RIVER    CLEAR     60  53  78 CALM      29.75F
LAND O LAKES   CLEAR     53  52  98 CALM      29.76F
RHINELANDER    PTCLDY    65  58  78 SW8       29.77F
PHILLIPS       CLEAR     64  61  91 S5        29.75F
ANTIGO         LGT RAIN  65  60  82 SW9       29.79F
TOMAHAWK       MOCLDY    65  59  81 CALM      29.78F
MERRILL        NOT AVBL
$$

WIZ013-073-020800-
NORTHEAST WISCONSIN

CITY           SKY/WX    TMP DP  RH WIND       PRES   REMARKS
IRON MOUNTAIN  CLEAR     58  53  84 CALM      29.74F
MARINETTE      CLEAR     66  52  59 SW8       29.76S
OCONTO         CLEAR     58  56  93 CALM      29.76F
$$

WIZ017-030-035>037-045-020800-
CENTRAL WISCONSIN

CITY           SKY/WX    TMP DP  RH WIND       PRES   REMARKS
MEDFORD        MOCLDY    68  63  83 SW8G16    29.78F
WAUSAU         MOCLDY    69  61  75 SW10      29.78F THUNDER
MOSINEE        MOCLDY    64  61  88 S7        29.80F
MARSHFIELD     LGT RAIN  67  60  78 SW5       29.80F
WISC RAPIDS    PTCLDY    66  60  81 S5        29.81S
STEVENS POINT  PTCLDY    66  60  81 SW3       29.81F
WAUPACA        PTCLDY    65  59  83 CALM      29.80S
SHAWANO        PTCLDY    67  56  69 CALM      29.77F
CLINTONVILLE   PTCLDY    63  54  72 CALM      29.78F
$$

WIZ038-039-048-051-020800-
FOX VALLEY

CITY           SKY/WX    TMP DP  RH WIND       PRES   REMARKS
NWS GREEN BAY  CLEAR     65  58  78 S6        29.78F
APPLETON       CLEAR     68  55  64 SW9       29.80F
OSHKOSH        CLEAR     71  59  65 SW9       29.80F
FOND DU LAC    CLEAR     67  60  78 S7        29.82F
$$

WIZ022-050-052-020800-
EAST CENTRAL WISCONSIN

CITY           SKY/WX    TMP DP  RH WIND       PRES   REMARKS
STURGEON BAY   CLEAR     64  52  63 S7        29.80F
MANITOWOC      CLEAR     64  57  78 MISG      29.80F
SHEBOYGAN      CLEAR     62  58  86 SW5       29.81F
$$

LMZ563-521-522-541>543-020800-
LAKESHORE

STATION/POSITION TIME  TEMP    WIND        PRES    VSBY  WAVE
                       AIR SEA DIR/SP/G                  HT/PER
                 (UTC) (F)     (DEG/KT/KT) (MB)    (MI)  (FT/S)
SHEBOYGAN LKSHOR 0700   66     190/  6/  7 1009.4F
KEWAUNEE LKSHORE 0600   66     250/  4/  5 1008.7F
ALGOMA MARINA    0612          220/  7/  9   N/A
NORTHPORT PIER   0600   66     180/  2/  6 1008.1F
N MID LAKE BUOY  0650   69 69  220/ 14/ 16 1006.9F         1/ 4
S GREEN BAY BUOY 0700   71 69  190/ 10/ 12 1009.5F
SISTER BAY LKSHO 0645   69     190/  6/  8   N/A
CHAMBERS ISLAND  0600   70     200/  4/  8 1008.1F
MENOMINEE LKSHOR 0600   71     230/  9/ 13 1009.0F
$$



USA.gov is the U.S. government's official web portal to all federal, state and local government web resources and services.